DLH1181 LPPR-EDDF

Flight info

Callsign DLH1181
Flight time 2h 23m
Altitude 34000
Route TURON P600 ASDEB DCT LOTEE DCT AZFIC UN741 MOKOR UN873 OBATO UM163 TSU UN858 OQQAL DCT RANUX DCT VALEK DCT LIPNI DCT LIMGO Z111 RAMOB IMCOM1A
Aircraft A21N/M-SDE2E3FGHIRWXY/LB1

Departure

Time 2026-05-07 03:23
Airport Francisco de Sá Carneiro Airport (LPPR)

Arrival

Time 2026-05-07 05:47
Airport Frankfurt Main Airport (EDDF)
Time Latitude Longitude Altitude Speed Heading
2026-05-07 02:17 41.23732 -8.67266 237 ft 0 kts 69°
2026-05-07 03:15 41.23728 -8.67279 237 ft 2 kts 68°
2026-05-07 03:15 41.23722 -8.67298 237 ft 2 kts 68°
2026-05-07 03:16 41.23715 -8.67317 237 ft 2 kts 355°
2026-05-07 03:16 41.23707 -8.67317 237 ft 0 kts 329°
2026-05-07 03:19 41.23710 -8.67319 237 ft 2 kts 329°
2026-05-07 03:20 41.23723 -8.67346 237 ft 4 kts 277°
2026-05-07 03:20 41.23722 -8.67401 237 ft 8 kts 263°
2026-05-07 03:20 41.23688 -8.67430 237 ft 6 kts 189°
2026-05-07 03:20 41.23638 -8.67468 237 ft 11 kts 231°
2026-05-07 03:21 41.23612 -8.67589 236 ft 15 kts 259°
2026-05-07 03:21 41.23603 -8.67650 236 ft 0 kts 257°
2026-05-07 03:22 41.23603 -8.67652 236 ft 2 kts 257°
2026-05-07 03:22 41.23594 -8.67716 230 ft 11 kts 259°
2026-05-07 03:22 41.23622 -8.67812 229 ft 14 kts 339°
2026-05-07 03:22 41.23787 -8.67858 224 ft 54 kts 349°
2026-05-07 03:23 41.24446 -8.68033 208 ft 134 kts 348°
2026-05-07 03:23 41.25568 -8.68330 303 ft 184 kts 349°
2026-05-07 03:23 41.26864 -8.68672 1006 ft 197 kts 348°
2026-05-07 03:23 41.28264 -8.69085 1718 ft 215 kts 346°
2026-05-07 03:24 41.29788 -8.69600 2369 ft 239 kts 345°
2026-05-07 03:24 41.31471 -8.70139 2977 ft 257 kts 349°
2026-05-07 03:24 41.33263 -8.70549 3824 ft 264 kts 351°
2026-05-07 03:24 41.35093 -8.70943 4746 ft 269 kts 351°
2026-05-07 03:25 41.36966 -8.71370 5583 ft 277 kts 350°
2026-05-07 03:25 41.38874 -8.71836 6476 ft 282 kts 349°
2026-05-07 03:25 41.40823 -8.72328 7320 ft 287 kts 350°
2026-05-07 03:25 41.42823 -8.72516 8171 ft 292 kts
2026-05-07 03:26 41.44830 -8.72155 9008 ft 296 kts 12°
2026-05-07 03:26 41.46871 -8.71614 9836 ft 302 kts 11°
2026-05-07 03:26 41.48974 -8.71075 10433 ft 316 kts 11°
2026-05-07 03:26 41.51208 -8.70511 10733 ft 338 kts 11°
2026-05-07 03:27 41.53580 -8.69914 11211 ft 351 kts 11°
2026-05-07 03:27 41.55983 -8.69310 12046 ft 352 kts 11°
2026-05-07 03:27 41.58400 -8.68700 12897 ft 355 kts 11°
2026-05-07 03:27 41.60829 -8.68086 13690 ft 357 kts 11°
2026-05-07 03:28 41.63283 -8.67463 14381 ft 361 kts 11°
2026-05-07 03:28 41.65760 -8.66836 15055 ft 364 kts 11°
2026-05-07 03:28 41.68265 -8.66202 15740 ft 367 kts 11°
2026-05-07 03:28 41.70794 -8.65560 16392 ft 371 kts 11°
2026-05-07 03:29 41.73335 -8.64914 17058 ft 374 kts 11°
2026-05-07 03:29 41.75904 -8.64260 17710 ft 377 kts 11°
2026-05-07 03:29 41.78500 -8.63597 18321 ft 381 kts 10°
2026-05-07 03:29 41.81081 -8.62938 18883 ft 384 kts 11°
2026-05-07 03:30 41.83718 -8.62265 19446 ft 387 kts 11°
2026-05-07 03:30 41.86370 -8.61586 19994 ft 390 kts 11°
2026-05-07 03:30 41.89045 -8.60901 20536 ft 393 kts 10°
2026-05-07 03:30 41.91755 -8.60207 21076 ft 396 kts 10°
2026-05-07 03:31 41.94472 -8.59510 21601 ft 400 kts 10°
2026-05-07 03:31 41.97216 -8.58806 22131 ft 403 kts 11°
2026-05-07 03:31 41.99979 -8.58096 22646 ft 406 kts 11°
2026-05-07 03:31 42.02772 -8.57378 23154 ft 409 kts 10°
2026-05-07 03:32 42.05576 -8.56652 23625 ft 412 kts 10°
2026-05-07 03:32 42.08421 -8.56069 24059 ft 414 kts
2026-05-07 03:32 42.11291 -8.55632 24488 ft 417 kts
2026-05-07 03:32 42.14190 -8.55175 24901 ft 419 kts
2026-05-07 03:33 42.17090 -8.54720 25312 ft 421 kts
2026-05-07 03:33 42.20017 -8.54255 25714 ft 424 kts
2026-05-07 03:33 42.22955 -8.53785 26102 ft 426 kts
2026-05-07 03:33 42.25910 -8.53311 26476 ft 429 kts
2026-05-07 03:34 42.28880 -8.52836 26857 ft 431 kts
2026-05-07 03:34 42.31862 -8.52359 27231 ft 433 kts
2026-05-07 03:34 42.34859 -8.51879 27582 ft 435 kts
2026-05-07 03:34 42.37835 -8.51402 27946 ft 437 kts
2026-05-07 03:35 42.40858 -8.50918 28270 ft 439 kts
2026-05-07 03:35 42.43900 -8.50430 28600 ft 441 kts
2026-05-07 03:35 42.46959 -8.49937 28934 ft 443 kts
2026-05-07 03:35 42.49974 -8.49020 29209 ft 446 kts 19°
2026-05-07 03:36 42.52807 -8.47285 29477 ft 448 kts 31°
2026-05-07 03:36 42.55345 -8.44791 29772 ft 451 kts 41°
2026-05-07 03:36 42.57704 -8.41975 30044 ft 453 kts 41°
2026-05-07 03:36 42.60076 -8.39152 30307 ft 455 kts 41°
2026-05-07 03:37 42.62462 -8.36321 30564 ft 456 kts 41°
2026-05-07 03:37 42.64862 -8.33477 30813 ft 458 kts 41°
2026-05-07 03:37 42.67265 -8.30628 31083 ft 459 kts 41°
2026-05-07 03:37 42.69643 -8.27806 31390 ft 459 kts 41°
2026-05-07 03:38 42.72049 -8.24948 31714 ft 459 kts 41°
2026-05-07 03:38 42.74452 -8.22088 32009 ft 459 kts 41°
2026-05-07 03:38 42.76857 -8.19225 32336 ft 459 kts 41°
2026-05-07 03:38 42.79261 -8.16358 32636 ft 459 kts 41°
2026-05-07 03:39 42.81663 -8.13489 32924 ft 459 kts 41°
2026-05-07 03:39 42.84052 -8.10634 33205 ft 459 kts 41°
2026-05-07 03:39 42.86455 -8.07758 33499 ft 458 kts 41°
2026-05-07 03:39 42.88857 -8.04881 33777 ft 458 kts 41°
2026-05-07 03:40 42.91250 -8.02011 33959 ft 459 kts 41°
2026-05-07 03:40 42.95993 -7.96313 33949 ft 457 kts 41°
2026-05-07 03:41 43.00771 -7.90562 33949 ft 457 kts 41°
2026-05-07 03:41 43.05534 -7.84816 33951 ft 457 kts 41°
2026-05-07 03:42 43.10299 -7.79055 33957 ft 457 kts 41°
2026-05-07 03:42 43.15071 -7.73272 33955 ft 457 kts 41°
2026-05-07 03:43 43.19839 -7.67481 33956 ft 458 kts 41°
2026-05-07 03:43 43.24603 -7.61682 33954 ft 458 kts 41°
2026-05-07 03:44 43.29372 -7.55865 33960 ft 458 kts 41°
2026-05-07 03:44 43.34139 -7.50038 33959 ft 459 kts 41°
2026-05-07 03:45 43.38876 -7.44234 33955 ft 459 kts 41°
2026-05-07 03:45 43.43639 -7.38385 33955 ft 459 kts 41°
2026-05-07 03:46 43.48408 -7.32517 33956 ft 459 kts 42°
2026-05-07 03:46 43.53165 -7.26649 33952 ft 459 kts 42°
2026-05-07 03:47 43.57933 -7.20756 33952 ft 459 kts 42°
2026-05-07 03:47 43.62696 -7.14856 33947 ft 460 kts 42°
2026-05-07 03:48 43.67425 -7.08984 33945 ft 459 kts 42°
2026-05-07 03:48 43.72183 -7.03063 33948 ft 459 kts 42°
2026-05-07 03:49 43.76928 -6.97146 33950 ft 459 kts 42°
2026-05-07 03:49 43.81672 -6.91216 33949 ft 460 kts 42°
2026-05-07 03:50 43.86424 -6.85263 33947 ft 460 kts 42°
2026-05-07 03:50 43.91135 -6.79348 33949 ft 460 kts 42°
2026-05-07 03:51 43.95883 -6.73374 33954 ft 460 kts 42°
2026-05-07 03:51 44.00625 -6.67393 33952 ft 460 kts 43°
2026-05-07 03:52 44.05369 -6.61398 33948 ft 461 kts 43°
2026-05-07 03:52 44.10106 -6.55396 33954 ft 461 kts 43°
2026-05-07 03:53 44.14852 -6.49369 33956 ft 462 kts 43°
2026-05-07 03:53 44.18802 -6.44344 33960 ft 462 kts 43°
2026-05-07 03:54 44.24323 -6.37302 33964 ft 463 kts 43°
2026-05-07 03:54 44.28298 -6.32222 33965 ft 463 kts 43°
2026-05-07 03:55 44.33052 -6.26132 33971 ft 463 kts 43°
2026-05-07 03:55 44.37765 -6.20081 33971 ft 463 kts 43°
2026-05-07 03:56 44.42513 -6.13970 33969 ft 463 kts 43°
2026-05-07 03:56 44.47255 -6.07853 33973 ft 463 kts 43°
2026-05-07 03:57 44.51989 -6.01733 33974 ft 463 kts 43°
2026-05-07 03:57 44.56727 -5.95592 33969 ft 464 kts 43°
2026-05-07 03:58 44.61462 -5.89446 33973 ft 464 kts 43°
2026-05-07 03:58 44.66180 -5.83281 33976 ft 463 kts 44°
2026-05-07 03:59 44.70788 -5.76933 33978 ft 463 kts 44°
2026-05-07 03:59 44.75410 -5.70630 33980 ft 463 kts 44°
2026-05-07 04:00 44.80038 -5.64297 33978 ft 463 kts 44°
2026-05-07 04:00 44.84647 -5.57957 33977 ft 463 kts 44°
2026-05-07 04:01 44.89263 -5.51583 33980 ft 464 kts 44°
2026-05-07 04:01 44.93866 -5.45220 33982 ft 463 kts 44°
2026-05-07 04:02 44.98433 -5.38891 33982 ft 462 kts 45°
2026-05-07 04:02 45.03017 -5.32524 33985 ft 462 kts 45°
2026-05-07 04:03 45.07592 -5.26154 33984 ft 461 kts 45°
2026-05-07 04:03 45.12152 -5.19790 33962 ft 459 kts 45°
2026-05-07 04:04 45.16686 -5.13445 33974 ft 458 kts 45°
2026-05-07 04:04 45.21229 -5.07075 33964 ft 457 kts 45°
2026-05-07 04:05 45.25722 -5.00758 33969 ft 457 kts 45°
2026-05-07 04:05 45.30231 -4.94405 33963 ft 457 kts 45°
2026-05-07 04:06 45.34737 -4.88040 33970 ft 457 kts 45°
2026-05-07 04:06 45.39242 -4.81661 33976 ft 457 kts 45°
2026-05-07 04:07 45.43749 -4.75265 33977 ft 457 kts 45°
2026-05-07 04:07 45.48251 -4.68859 33991 ft 457 kts 45°
2026-05-07 04:08 45.52751 -4.62442 33998 ft 458 kts 45°
2026-05-07 04:08 45.57220 -4.56055 34003 ft 458 kts 45°
2026-05-07 04:09 45.61714 -4.49616 34007 ft 458 kts 45°
2026-05-07 04:09 45.66206 -4.43163 34005 ft 457 kts 45°
2026-05-07 04:10 45.70690 -4.36707 34008 ft 457 kts 45°
2026-05-07 04:10 45.75167 -4.30246 34014 ft 456 kts 45°
2026-05-07 04:11 45.79631 -4.23787 34006 ft 456 kts 45°
2026-05-07 04:11 45.84087 -4.17324 33996 ft 455 kts 45°
2026-05-07 04:12 45.88529 -4.10866 33990 ft 454 kts 45°
2026-05-07 04:12 45.92966 -4.04400 33995 ft 454 kts 45°
2026-05-07 04:13 45.97390 -3.97938 33990 ft 453 kts 45°
2026-05-07 04:13 46.01774 -3.91517 33990 ft 453 kts 45°
2026-05-07 04:14 46.06212 -3.85002 33991 ft 452 kts 45°
2026-05-07 04:14 46.10608 -3.78534 33991 ft 452 kts 45°
2026-05-07 04:15 46.14997 -3.72055 33998 ft 451 kts 45°
2026-05-07 04:15 46.19355 -3.65615 33992 ft 451 kts 45°
2026-05-07 04:16 46.23761 -3.59068 33991 ft 451 kts 45°
2026-05-07 04:16 46.28146 -3.52570 33994 ft 451 kts 45°
2026-05-07 04:17 46.32523 -3.46057 34000 ft 451 kts 45°
2026-05-07 04:17 46.36877 -3.39557 33999 ft 451 kts 45°
2026-05-07 04:18 46.41227 -3.33036 34000 ft 451 kts 45°
2026-05-07 04:18 46.45584 -3.26504 34002 ft 451 kts 45°
2026-05-07 04:19 46.49942 -3.19954 34001 ft 450 kts 45°
2026-05-07 04:19 46.54266 -3.13389 33997 ft 450 kts 47°
2026-05-07 04:20 46.58116 -3.06216 34002 ft 450 kts 55°
2026-05-07 04:20 46.61335 -2.98406 33995 ft 450 kts 59°
2026-05-07 04:21 46.66066 -2.86605 33995 ft 449 kts 58°
2026-05-07 04:21 46.69213 -2.78736 33997 ft 449 kts 58°
2026-05-07 04:22 46.72348 -2.70866 33997 ft 449 kts 59°
2026-05-07 04:22 46.75479 -2.62985 33999 ft 449 kts 58°
2026-05-07 04:23 46.78597 -2.55112 33989 ft 448 kts 59°
2026-05-07 04:23 46.81712 -2.47222 33995 ft 448 kts 59°
2026-05-07 04:24 46.84806 -2.39363 33990 ft 448 kts 59°
2026-05-07 04:24 46.87958 -2.31520 33993 ft 447 kts 57°
2026-05-07 04:25 46.91260 -2.23798 33992 ft 447 kts 57°
2026-05-07 04:25 46.94538 -2.16080 33999 ft 447 kts 57°
2026-05-07 04:26 46.97779 -2.08371 33991 ft 446 kts 57°
2026-05-07 04:26 47.01511 -2.01168 33993 ft 444 kts 45°
2026-05-07 04:27 47.06205 -1.95302 33994 ft 442 kts 36°
2026-05-07 04:27 47.11130 -1.89888 33994 ft 442 kts 36°
2026-05-07 04:28 47.16040 -1.84439 33990 ft 442 kts 36°
2026-05-07 04:28 47.20930 -1.79046 33997 ft 442 kts 36°
2026-05-07 04:29 47.25850 -1.73624 33996 ft 442 kts 36°
2026-05-07 04:29 47.30770 -1.68180 33994 ft 442 kts 36°
2026-05-07 04:30 47.35361 -1.62130 34001 ft 443 kts 45°
2026-05-07 04:30 47.39320 -1.55149 34002 ft 444 kts 51°
2026-05-07 04:31 47.43089 -1.48000 34000 ft 444 kts 51°
2026-05-07 04:31 47.46888 -1.40806 34013 ft 444 kts 51°
2026-05-07 04:32 47.50680 -1.33611 34013 ft 443 kts 51°
2026-05-07 04:32 47.54468 -1.26403 34015 ft 443 kts 51°
2026-05-07 04:33 47.58244 -1.19203 34018 ft 443 kts 51°
2026-05-07 04:33 47.62019 -1.11980 34011 ft 443 kts 51°
2026-05-07 04:34 47.65762 -1.04800 34010 ft 442 kts 51°
2026-05-07 04:34 47.69519 -0.97577 34019 ft 442 kts 51°
2026-05-07 04:35 47.73274 -0.90339 34028 ft 442 kts 51°
2026-05-07 04:35 47.77019 -0.83099 34037 ft 442 kts 51°
2026-05-07 04:36 47.80757 -0.75851 34024 ft 441 kts 52°
2026-05-07 04:36 47.83887 -0.69768 34018 ft 441 kts 52°
2026-05-07 04:37 47.87591 -0.62551 34020 ft 441 kts 52°
2026-05-07 04:37 47.91321 -0.55263 34024 ft 441 kts 52°
2026-05-07 04:38 47.95041 -0.47975 34024 ft 442 kts 52°
2026-05-07 04:38 47.98763 -0.40665 34027 ft 442 kts 52°
2026-05-07 04:39 48.02476 -0.33352 34026 ft 442 kts 52°
2026-05-07 04:39 48.06036 -0.25863 34031 ft 442 kts 57°
2026-05-07 04:40 48.08982 -0.17856 34040 ft 443 kts 64°
2026-05-07 04:40 48.11590 -0.09483 34043 ft 443 kts 64°
2026-05-07 04:41 48.14196 -0.01135 34044 ft 443 kts 64°
2026-05-07 04:41 48.16799 0.07207 34038 ft 447 kts 64°
2026-05-07 04:42 48.19450 0.15714 34038 ft 457 kts 64°
2026-05-07 04:42 48.21985 0.23879 34040 ft 456 kts 64°
2026-05-07 04:43 48.24658 0.32525 34040 ft 455 kts 64°
2026-05-07 04:43 48.27318 0.41158 34032 ft 455 kts 64°
2026-05-07 04:44 48.29969 0.49796 34038 ft 455 kts 64°
2026-05-07 04:44 48.32603 0.58408 34039 ft 455 kts 64°
2026-05-07 04:45 48.35236 0.67047 34034 ft 455 kts 64°
2026-05-07 04:45 48.37867 0.75708 34038 ft 454 kts 64°
2026-05-07 04:46 48.40470 0.84305 34037 ft 454 kts 64°
2026-05-07 04:46 48.43082 0.92965 34037 ft 454 kts 64°
2026-05-07 04:47 48.45686 1.01628 34037 ft 454 kts 64°
2026-05-07 04:47 48.48287 1.10312 34036 ft 454 kts 64°
2026-05-07 04:48 48.50880 1.18998 34033 ft 454 kts 64°
2026-05-07 04:48 48.53462 1.27683 34036 ft 453 kts 64°
2026-05-07 04:49 48.56036 1.36368 34033 ft 453 kts 65°
2026-05-07 04:49 48.58605 1.45071 34030 ft 453 kts 65°
2026-05-07 04:50 48.61172 1.53795 34033 ft 453 kts 65°
2026-05-07 04:50 48.63716 1.62478 34034 ft 453 kts 65°
2026-05-07 04:51 48.66005 1.71384 34031 ft 453 kts 69°
2026-05-07 04:51 48.68065 1.79889 34031 ft 453 kts 69°
2026-05-07 04:52 48.70238 1.88851 34025 ft 452 kts 69°
2026-05-07 04:52 48.72396 1.97801 34023 ft 452 kts 69°
2026-05-07 04:53 48.73134 2.00872 34023 ft 452 kts 69°
2026-05-07 04:53 48.75084 2.09091 34024 ft 452 kts 70°
2026-05-07 04:54 48.76830 2.18237 34020 ft 452 kts 73°
2026-05-07 04:54 48.78474 2.27385 34021 ft 451 kts 73°
2026-05-07 04:55 48.80126 2.36584 34018 ft 451 kts 73°
2026-05-07 04:55 48.81764 2.45757 34019 ft 451 kts 73°
2026-05-07 04:56 48.83395 2.54938 34020 ft 451 kts 73°
2026-05-07 04:56 48.85019 2.64133 34021 ft 450 kts 73°
2026-05-07 04:57 48.86633 2.73312 34026 ft 450 kts 73°
2026-05-07 04:57 48.88240 2.82514 34025 ft 450 kts 73°
2026-05-07 04:58 48.89827 2.91629 34027 ft 449 kts 73°
2026-05-07 04:58 48.91416 3.00808 34025 ft 449 kts 74°
2026-05-07 04:59 48.92999 3.10002 34022 ft 448 kts 74°
2026-05-07 04:59 48.94570 3.19173 34012 ft 448 kts 74°
2026-05-07 05:00 48.96132 3.28348 34018 ft 448 kts 74°
2026-05-07 05:00 48.97689 3.37531 34018 ft 448 kts 74°
2026-05-07 05:01 48.99226 3.46650 34020 ft 447 kts 74°
2026-05-07 05:01 49.00776 3.55893 34017 ft 447 kts 74°
2026-05-07 05:02 49.02307 3.65069 34015 ft 448 kts 75°
2026-05-07 05:02 49.03851 3.74291 33974 ft 449 kts 77°
2026-05-07 05:03 49.05381 3.83513 33970 ft 449 kts 77°
2026-05-07 05:03 49.06900 3.92773 33969 ft 450 kts 77°
2026-05-07 05:04 49.08409 4.02048 33972 ft 451 kts 77°
2026-05-07 05:04 49.09913 4.11351 33986 ft 452 kts 77°
2026-05-07 05:05 49.11420 4.20710 33994 ft 454 kts 77°
2026-05-07 05:05 49.12922 4.30089 34002 ft 455 kts 77°
2026-05-07 05:06 49.14773 4.39366 34006 ft 458 kts 70°
2026-05-07 05:06 49.17209 4.48375 34007 ft 460 kts 69°
2026-05-07 05:07 49.19661 4.57405 34028 ft 461 kts 69°
2026-05-07 05:07 49.22123 4.66530 34027 ft 461 kts 69°
2026-05-07 05:08 49.24552 4.75574 34031 ft 462 kts 69°
2026-05-07 05:08 49.26988 4.84673 34029 ft 462 kts 69°
2026-05-07 05:09 49.29417 4.93784 34027 ft 462 kts 69°
2026-05-07 05:09 49.31838 5.02900 34013 ft 461 kts 69°
2026-05-07 05:10 49.34248 5.12011 34012 ft 461 kts 69°
2026-05-07 05:10 49.36650 5.21125 34011 ft 460 kts 69°
2026-05-07 05:11 49.39040 5.30233 34007 ft 460 kts 69°
2026-05-07 05:11 49.41422 5.39345 34000 ft 459 kts 69°
2026-05-07 05:12 49.43795 5.48459 33989 ft 459 kts 69°
2026-05-07 05:12 49.46156 5.57562 33989 ft 459 kts 69°
2026-05-07 05:13 49.48517 5.66701 33945 ft 460 kts 69°
2026-05-07 05:13 49.49558 5.70740 33766 ft 460 kts 69°
2026-05-07 05:13 49.50735 5.75318 33574 ft 459 kts 69°
2026-05-07 05:14 49.51930 5.79874 33367 ft 458 kts 65°
2026-05-07 05:14 49.53518 5.84040 33136 ft 460 kts 53°
2026-05-07 05:14 49.55228 5.87074 32747 ft 461 kts 44°
2026-05-07 05:14 49.57671 5.90265 32134 ft 459 kts 39°
2026-05-07 05:15 49.60180 5.93296 31522 ft 455 kts 38°
2026-05-07 05:15 49.61833 5.95289 31143 ft 453 kts 39°
2026-05-07 05:15 49.64325 5.98321 30565 ft 449 kts 39°
2026-05-07 05:15 49.66765 6.01316 30032 ft 442 kts 39°
2026-05-07 05:16 49.69129 6.04253 29641 ft 433 kts 39°
2026-05-07 05:16 49.71474 6.07171 29312 ft 436 kts 39°
2026-05-07 05:16 49.73839 6.10127 28972 ft 437 kts 40°
2026-05-07 05:16 49.76190 6.13075 28632 ft 434 kts 40°
2026-05-07 05:17 49.78538 6.16021 28297 ft 432 kts 40°
2026-05-07 05:17 49.80869 6.18941 27973 ft 431 kts 40°
2026-05-07 05:17 49.83198 6.21867 27644 ft 430 kts 40°
2026-05-07 05:17 49.85515 6.24795 27324 ft 429 kts 40°
2026-05-07 05:18 49.87823 6.27704 27002 ft 428 kts 40°
2026-05-07 05:18 49.90127 6.30614 26687 ft 426 kts 40°
2026-05-07 05:18 49.92433 6.33530 26374 ft 426 kts 40°
2026-05-07 05:18 49.94729 6.36447 26066 ft 425 kts 40°
2026-05-07 05:19 49.96983 6.39303 25756 ft 423 kts 39°
2026-05-07 05:19 49.99265 6.42187 25452 ft 422 kts 39°
2026-05-07 05:19 50.01541 6.45071 25155 ft 421 kts 39°
2026-05-07 05:19 50.03802 6.47950 24856 ft 419 kts 40°
2026-05-07 05:20 50.06063 6.50825 24569 ft 418 kts 39°
2026-05-07 05:20 50.08302 6.53687 24281 ft 416 kts 39°
2026-05-07 05:20 50.10534 6.56543 24000 ft 415 kts 39°
2026-05-07 05:20 50.12667 6.59268 23723 ft 414 kts 39°
2026-05-07 05:21 50.14897 6.62112 23423 ft 413 kts 39°
2026-05-07 05:21 50.19222 6.67643 22760 ft 408 kts 39°
2026-05-07 05:21 50.21409 6.70449 22444 ft 406 kts 39°
2026-05-07 05:22 50.23587 6.73248 22114 ft 404 kts 39°
2026-05-07 05:22 50.25751 6.76033 21794 ft 402 kts 39°
2026-05-07 05:22 50.27908 6.78812 21483 ft 400 kts 39°
2026-05-07 05:22 50.29861 6.81883 21159 ft 398 kts 54°
2026-05-07 05:23 50.31166 6.85659 20847 ft 396 kts 72°
2026-05-07 05:23 50.31698 6.89846 20548 ft 393 kts 89°
2026-05-07 05:23 50.31404 6.94075 20240 ft 389 kts 107°
2026-05-07 05:23 50.30379 6.97986 19945 ft 387 kts 117°
2026-05-07 05:24 50.29247 7.01467 19670 ft 386 kts 118°
2026-05-07 05:24 50.28050 7.05123 19368 ft 384 kts 118°
2026-05-07 05:24 50.26843 7.08964 19070 ft 383 kts 117°
2026-05-07 05:24 50.25704 7.12687 18778 ft 382 kts 116°
2026-05-07 05:25 50.24570 7.16445 18495 ft 381 kts 116°
2026-05-07 05:25 50.23445 7.20195 18207 ft 380 kts 116°
2026-05-07 05:25 50.22337 7.23891 17884 ft 378 kts 116°
2026-05-07 05:25 50.21226 7.27594 17566 ft 377 kts 116°
2026-05-07 05:26 50.20114 7.31290 17236 ft 376 kts 116°
2026-05-07 05:26 50.19104 7.35063 16924 ft 375 kts 111°
2026-05-07 05:26 50.18207 7.38872 16608 ft 374 kts 111°
2026-05-07 05:26 50.17309 7.42662 16296 ft 372 kts 111°
2026-05-07 05:27 50.16410 7.46440 15989 ft 370 kts 111°
2026-05-07 05:27 50.15511 7.50200 15698 ft 369 kts 112°
2026-05-07 05:27 50.14613 7.53947 15396 ft 368 kts 112°
2026-05-07 05:27 50.13719 7.57672 15091 ft 366 kts 112°
2026-05-07 05:28 50.12835 7.61350 14796 ft 365 kts 112°
2026-05-07 05:28 50.11935 7.65088 14493 ft 364 kts 112°
2026-05-07 05:28 50.10923 7.68628 14210 ft 361 kts 120°
2026-05-07 05:28 50.09584 7.71924 13921 ft 359 kts 127°
2026-05-07 05:29 50.08153 7.75101 13618 ft 358 kts 126°
2026-05-07 05:29 50.06739 7.78278 13298 ft 356 kts 126°
2026-05-07 05:29 50.05333 7.81444 12972 ft 354 kts 126°
2026-05-07 05:29 50.03935 7.84590 12662 ft 353 kts 126°
2026-05-07 05:30 50.02537 7.87728 12351 ft 351 kts 126°
2026-05-07 05:30 50.01149 7.90841 12041 ft 350 kts 126°
2026-05-07 05:30 49.99538 7.93632 11738 ft 346 kts 140°
2026-05-07 05:30 49.97964 7.96453 11430 ft 348 kts 121°
2026-05-07 05:31 49.97150 7.99984 11131 ft 350 kts 98°
2026-05-07 05:31 49.97245 8.03733 10920 ft 350 kts 76°
2026-05-07 05:31 49.98032 8.06734 10724 ft 343 kts 58°
2026-05-07 05:31 49.99368 8.09738 10470 ft 332 kts 52°
2026-05-07 05:32 50.00716 8.12597 10218 ft 322 kts 54°
2026-05-07 05:32 50.01941 8.15457 9979 ft 313 kts 57°
2026-05-07 05:32 50.03031 8.18280 9728 ft 304 kts 59°
2026-05-07 05:32 50.04057 8.21128 9458 ft 299 kts 60°
2026-05-07 05:33 50.05062 8.24022 9190 ft 299 kts 60°
2026-05-07 05:33 50.06035 8.26859 8929 ft 296 kts 61°
2026-05-07 05:33 50.07001 8.29686 8669 ft 295 kts 61°
2026-05-07 05:33 50.07963 8.32500 8407 ft 293 kts 60°
2026-05-07 05:34 50.08917 8.35291 8159 ft 292 kts 60°
2026-05-07 05:34 50.09816 8.38073 7898 ft 290 kts 66°
2026-05-07 05:34 50.10514 8.41003 7639 ft 285 kts 69°
2026-05-07 05:34 50.11193 8.43866 7384 ft 279 kts 68°
2026-05-07 05:35 50.11863 8.46662 7154 ft 274 kts 68°
2026-05-07 05:35 50.12534 8.49452 6918 ft 275 kts 68°
2026-05-07 05:35 50.13200 8.52230 6685 ft 272 kts 68°
2026-05-07 05:35 50.13874 8.55002 6476 ft 273 kts 68°
2026-05-07 05:36 50.14528 8.57753 6240 ft 270 kts 68°
2026-05-07 05:36 50.15180 8.60509 6007 ft 271 kts 68°
2026-05-07 05:36 50.15829 8.63252 5775 ft 269 kts 68°
2026-05-07 05:36 50.16479 8.65989 5534 ft 269 kts 68°
2026-05-07 05:37 50.17126 8.68715 5307 ft 267 kts 68°
2026-05-07 05:37 50.17774 8.71444 5077 ft 267 kts 68°
2026-05-07 05:37 50.18408 8.74121 4852 ft 261 kts 69°
2026-05-07 05:37 50.19029 8.76756 4622 ft 256 kts 68°
2026-05-07 05:38 50.19632 8.79329 4405 ft 249 kts 68°
2026-05-07 05:38 50.20216 8.81831 4186 ft 241 kts 69°
2026-05-07 05:38 50.20782 8.84239 3993 ft 232 kts 69°
2026-05-07 05:38 50.21309 8.86603 3979 ft 232 kts 76°
2026-05-07 05:39 50.21274 8.89094 3982 ft 231 kts 110°
2026-05-07 05:39 50.20426 8.91056 3979 ft 209 kts 144°
2026-05-07 05:39 50.19292 8.92320 3990 ft 198 kts 151°
2026-05-07 05:39 50.18040 8.93168 3985 ft 196 kts 163°
2026-05-07 05:40 50.16756 8.93876 3985 ft 195 kts 163°
2026-05-07 05:40 50.15477 8.94569 3985 ft 194 kts 164°
2026-05-07 05:40 50.14168 8.94888 3984 ft 190 kts 192°
2026-05-07 05:40 50.12996 8.94042 3990 ft 185 kts 224°
2026-05-07 05:41 50.12211 8.92527 3990 ft 182 kts 243°
2026-05-07 05:41 50.11663 8.90717 3990 ft 182 kts 249°
2026-05-07 05:41 50.11212 8.88912 3991 ft 182 kts 251°
2026-05-07 05:41 50.10765 8.87039 3997 ft 180 kts 251°
2026-05-07 05:42 50.10332 8.85219 3994 ft 184 kts 251°
2026-05-07 05:42 50.09890 8.83377 3833 ft 180 kts 251°
2026-05-07 05:42 50.09458 8.81545 3585 ft 181 kts 251°
2026-05-07 05:42 50.09030 8.79763 3333 ft 169 kts 252°
2026-05-07 05:43 50.08634 8.78095 3124 ft 156 kts 252°
2026-05-07 05:43 50.08272 8.76578 2915 ft 149 kts 252°
2026-05-07 05:43 50.07910 8.75047 2702 ft 149 kts 252°
2026-05-07 05:43 50.07569 8.73618 2514 ft 147 kts 252°
2026-05-07 05:44 50.07210 8.72105 2309 ft 151 kts 252°
2026-05-07 05:44 50.06849 8.70584 2102 ft 149 kts 252°
2026-05-07 05:44 50.06491 8.69080 1898 ft 148 kts 251°
2026-05-07 05:44 50.06127 8.67561 1697 ft 149 kts 252°
2026-05-07 05:45 50.05757 8.66060 1439 ft 148 kts 251°
2026-05-07 05:45 50.05413 8.64521 1198 ft 151 kts 252°
2026-05-07 05:45 50.05031 8.63024 1027 ft 151 kts 257°
2026-05-07 05:45 50.04674 8.61491 798 ft 148 kts 261°
2026-05-07 05:46 50.04325 8.60010 567 ft 145 kts 251°
2026-05-07 05:46 50.03974 8.58528 381 ft 145 kts 251°
2026-05-07 05:46 50.03678 8.57278 362 ft 104 kts 250°
2026-05-07 05:46 50.03481 8.56465 352 ft 52 kts 251°
2026-05-07 05:47 50.03436 8.56144 357 ft 25 kts 269°
2026-05-07 05:47 50.03455 8.55888 345 ft 20 kts 280°
2026-05-07 05:47 50.03473 8.55730 347 ft 12 kts 281°
2026-05-07 05:47 50.03490 8.55590 345 ft 14 kts 283°
2026-05-07 05:48 50.03565 8.55518 350 ft 14 kts
2026-05-07 05:48 50.03667 8.55537 352 ft 15 kts
2026-05-07 05:48 50.03780 8.55547 356 ft 17 kts 340°
2026-05-07 05:48 50.03890 8.55488 353 ft 16 kts 341°
2026-05-07 05:49 50.04004 8.55451 354 ft 17 kts 337°
2026-05-07 05:49 50.04116 8.55437 360 ft 18 kts 41°
2026-05-07 05:49 50.04164 8.55626 354 ft 20 kts 70°
2026-05-07 05:49 50.04216 8.55841 357 ft 22 kts 70°
2026-05-07 05:50 50.04272 8.56075 357 ft 24 kts 70°
2026-05-07 05:50 50.04333 8.56333 360 ft 26 kts 70°
2026-05-07 05:50 50.04398 8.56605 360 ft 28 kts 69°
2026-05-07 05:50 50.04473 8.56849 362 ft 21 kts 36°
2026-05-07 05:51 50.04611 8.56912 356 ft 17 kts 14°
2026-05-07 05:51 50.04731 8.56988 356 ft 18 kts 22°
2026-05-07 05:51 50.04759 8.57103 361 ft 12 kts 118°
2026-05-07 05:51 50.04750 8.57131 358 ft 0 kts 118°